(706) 295-7835

For Pilots

METAR

KRMG 212153Z AUTO 14005KT 10SM CLR 32/18 A3004 RMK AO2 SLP163 T03170178

Location & Communications

Get detailed information about the airport, provided by AirNav.

Pilot Services

We have fuel services, on-site repair and maintenance, 24-hour security and more.

Fuel Points

Russell Regional Airport is a Shell Aviation merchant and is proud to participate in the Shell Aero Class Rewards program!

Today's Fuel Prices

Jet A $4.62 / gallon
AvGas (100LL) $4.95 / gallon
Self Serve AvGas $4.45 / gallon
Learn about fuel points program